CZ-6A DEB, 54384

Orbit data source: Space-Track

CZ-6A DEB, 54384 is space debris in SSO originally from a launch on Fri, 11 Nov 2022 UTC launched from the Taiyaun Space Center, China (TSC). Debris objects in space refer to the collection of defunct objects orbiting the Earth. Examples of debris include non-operational satellites, rocket bodies, and fragments generated from explosions, collisions, or faulty payload assembly.

Loading next visibility...
Identifier
54384, 2022-151DG
Orbit
SSO
Country
Flag of CNCN / PRC
Related business
Manufacturer
SAST
Mission
Spacecraft
Bus & Motor
Unknown
Mass
Unknown
Launch date (UTC)
2022-11-11 (4 years ago)
Launch vehicle
Unknown
Launch site
Taiyaun Space Center, China (TSC)
Object type
Payload
Rocket body
Debris
Shape & HBR
Unknown shape, 0.1 m
Radar Cross Section
Small (<0.1 m²)

Expand to show TLE details & history
Last TLE update: 20 hours ago

TLE from 20 hours ago
0 CZ-6A DEB
1 54384U 22151DG  26235.48240469  .00000819  00000-0  37757-3 0  9990
2 54384  98.7611 251.2406 0034830 344.3391  15.6707 14.23499823195403
Epoch: 2026-08-23T11:34Z
TLE epoch observation values (Epoch: 2026-08-23T11:34:39.765Z)
Latitude
-0.00001°
Longitude
105.79709°
Altitude
792.343 km
Speed
7.47 km/s
True Right ascension
16h 44m 57s
True Declination
0° 00' 00"
Sunlit
Object was in daylight at epoch
Visualization orbit readout
Latitude
Unknown
Longitude
Unknown
Altitude
Unknown
Speed
Unknown
Apparent Right ascension
Unknown
Apparent Declination
Unknown
Sunlit
N/A
Visualization observer readout
Local Sidereal Time
22:44:58
Azimuth
Unknown
Elevation
Unknown
Doppler factor
Unknown
Orbital elements
Apogee altitude
835.736 km
Perigee altitude
785.659 km
Semi-major axis
7,188.834 km
Eccentricity
0.00348
Inclination
98.7611°
RAAN
251.2406°
Arg. of periapsis
344.3391°
True anomaly
15.77896°
Mean anomaly
15.6707°
Eccentric anomaly
15.72478°
Mean motion
3.56086 °/min
Orbital period
101.1 mins
BSTAR
0.00037757
Loading maneuver chart data...
Computing Atmospheric mass density...
Loading historical data...
Loading historical data...
Loading historical data...
Loading historical data...
Loading historical data...
Loading historical data...
Loading historical data...

Documentation

Showing up to 5 results
|